Regional Weather Roundup
Issued by NWS Upton, NY

Home | Current Version | Previous Version | Text Only | Print | Product List | Glossary On
Versions: 1 2 3 4 5 6 7 8 9 10 11 12 13 14 15 16 17 18 19 20 21 22 23 24 25 26 27 28
000
ASUS41 KOKX 220409
RWROKX

REGIONAL WEATHER ROUNDUP
NATIONAL WEATHER SERVICE NEW YORK NY
1200 AM EDT SUN OCT 22 2017

NOTE: "FAIR" INDICATES FEW OR NO CLOUDS BELOW 12,000 FEET WITH NO
SIGNIFICANT WEATHER AND/OR OBSTRUCTIONS TO VISIBILITY.

NYZ071-072-176-178-NJZ106-104-220500-
NEW YORK CITY METRO AREA

CITY           SKY/WX    TMP DP  RH WIND       PRES   REMARKS
Central Park   CLEAR     65  47  52 VRB3      30.38S
Bronx Bot Gard   N/A     66  45  45 SW5       30.38R
LaGuardia APRT MOCLDY    66  46  48 SW6       30.35S
Kennedy INTL   PTCLDY    57  51  80 SW7       30.37S
Breezy Point     N/A     63 N/A N/A SW3         N/A
Newark/Liberty PTCLDY    57  46  66 SW6       30.36S
Teterboro      CLEAR     55  48  77 CALM      30.35S
$$

NYZ177-179-078>081-220500-
LONG ISLAND NEW YORK

CITY           SKY/WX    TMP DP  RH WIND       PRES   REMARKS
Jones Beach      N/A     63 N/A N/A SW3         N/A
Matinecock PT    N/A     64 N/A N/A SW6         N/A
Farmingdale    PTCLDY    55  51  86 CALM      30.36F
MacArthur/ISP  PTCLDY    56  55  97 CALM      30.35S
Shirley        PTCLDY    56  54  93 CALM      30.36S FOG
Mt Sinai Harb    N/A    N/A N/A N/A S1          N/A
Westhampton    FOG       43  41  93 CALM      30.37S VSB 1/2
East Hampton   FAIR      46  46  97 CALM      30.35S
Montauk          N/A     61  56  83 VRB5      30.36F
$$

NYZ052-065-067-220500-
HUDSON VALLEY

CITY           SKY/WX    TMP DP  RH WIND       PRES   REMARKS
White Plains   CLEAR     52  47  83 W5        30.35S
Larchmont Harb   N/A     57 N/A N/A MISG        N/A
Croton On Huds   N/A     54 N/A N/A MISG        N/A
Newburgh       CLEAR     52  45  76 W5        30.36S
Montgomery     CLEAR     46  43  89 CALM      30.35R
Poughkeepsie   CLOUDY    47  44  90 CALM      30.34R
Albany         MOCLDY    48  45  89 CALM      30.34R
$$

NJZ001-105-106-008-010-013-015-019>022-104-220500-
NEW JERSEY

CITY           SKY/WX    TMP DP  RH WIND       PRES   REMARKS
Newark/Liberty PTCLDY    57  46  66 SW6       30.36S
Teterboro      CLEAR     55  48  77 CALM      30.35S
Caldwell       CLEAR     50  48  93 CALM      30.37S
Somerville     CLEAR     46  45  96 CALM      30.35R
Linden         FAIR      58  45  62 CALM      30.36S
Perth Amboy      N/A     59 N/A N/A NW5         N/A
Sussex         CLEAR     45  44  97 CALM      30.37S
Andover          N/A     46  45  96 CALM      30.37S
Trenton        CLEAR     53  46  77 CALM      30.36S
Millville      MOCLDY    50  48  93 CALM      30.37S
Atlantic City  PTCLDY    51  49  92 CALM      30.37S
Wrightstown    NOT AVBL
Toms River       N/A     47  44  90 CALM      30.37F
Belmar         PTCLDY    56  51  84 SW6       30.37F
$$

PAZ047>061-062-071-220500-
EASTERN PENNSYLVANIA

CITY           SKY/WX    TMP DP  RH WIND       PRES   REMARKS
Philadelphia   PTCLDY    59  48  67 S3        30.37S
Allentown      CLEAR     51  45  79 NW3       30.37R
Scranton       CLEAR     52  43  71 E5        30.36F
$$

CTZ002-004>006-009-010-012-RIZ004-006-007-MAZ004-011-015-220500-
SOUTHERN NEW ENGLAND
 IN CT

CITY           SKY/WX    TMP DP  RH WIND       PRES   REMARKS
Bradley INTL   MOCLDY    50  47  89 CALM      30.34S
Hartford       CLOUDY    51  50  96 CALM      30.34S
Danbury        CLOUDY    47  44  90 CALM      30.37S
Wtrbury/Oxford CLOUDY    54  44  69 CALM      30.36S
Norwalk Harbor   N/A     57 N/A N/A NW1         N/A
Bridgeport     PTCLDY    55  48  77 CALM      30.35S
Meriden        PTCLDY    47  46  97 CALM      30.35S FOG
New Haven      PTCLDY    49  46  90 CALM      30.35S
Chester        FAIR      61  48  63 W7        30.35S
Groton         PTCLDY    51  49  92 N3        30.34S
Wilimantic     CLOUDY    48  45  89 CALM      30.36S

 IN RI

CITY           SKY/WX    TMP DP  RH WIND       PRES   REMARKS
Providence     CLOUDY    55  50  83 CALM      30.34S
Block Island   CLEAR     60  55  83 W10       30.35F
Westerly       CLEAR     51  49  92 CALM      30.35S
 IN MA

CITY           SKY/WX    TMP DP  RH WIND       PRES   REMARKS
Boston         CLOUDY    60  49  66 S5        30.32S
Worcester      CLOUDY    60  38  43 W9        30.35S
Westfield      PTCLDY    46  45  96 CALM      30.34S
Provincetown   CLOUDY    59  55  87 S7        30.34S
Nantucket      CLOUDY    60  58  92 SW8       30.36S
$$

ANZ330-335-338-340-345-350-353-355-220500-
COASTAL MARINE OBSERVATIONS


STATION/POSITION TIME  SKY/WX   TEMP    WIND        PRES    VSBY  WAVE
                                AIR SEA DIR/SP/G                  HT/PER
                 (UTC)          (F)     (DEG/KT/KT) (MB)    (MI)  (FT/S)
NY HARB ENTRANCE 0250            65 65  230/ 12/ 14 1027.3          2/ 8
20 S FIRE ISLAND 0250            64 64  230/  8/ 10 1028.2          2/ 9
GREAT SOUTH BAY  0330            61 62  290/  2/  4   N/A
15 E BARNEGAT LI NOT AVBL
HUDSON CANYON    0250            65 65  210/  6/  6 1027.8          2/ 9
KINGS POINT      0348            63 65  190/  6/  6 1028.5
EXECUTION ROCKS  0330            64     190/  4/  6   N/A
WESTERN LI SOUND 0249            66     240/  8/ 10   N/A           0
CENTRAL LI SOUND NOT AVBL
EASTERN LI SOUND NOT AVBL
ROBBINS REEF     0348            64     260/  6/  8 1028.5
$$


>>>>>>>>>>>>>>>>>>>>>>>>>>>> KEY <<<<<<<<<<<<<<<<<<<<<<<<<<<
>                                                          <
>     SKY/WX - Sky Condition/Present Weather               <
>     TMP    - Temperature in Fahrenheit                   <
>     DP     - Dew Point in Fahrenheit                     <
>     RH     - Relative Humidity in Percent                <
>     WIND   - Direction (from) and Speed in MPH           <
>     PRES   - Mean Sea Level Pressure (inches of Hg)      <
>     WCI    - Wind Chill Index                            <
>     VSB    - VISIBILITY IN MILES                         <
>     HX     - HEAT INDEX                                  <
>     TC     - TEMPERATURE IN CELSIUS                      <
>     VRB    - VARIABLE WIND DIRECTION                     <
>                                                          <
>>>>>>>>>>>>>>>>>>>>>>>>>>>> KEY <<<<<<<<<<<<<<<<<<<<<<<<<<<




USA.gov is the U.S. government's official web portal to all federal, state and local government web resources and services.